• In Belgien
  • Länderverzeichnis
  • Für 7 Tage
  • Wassertemperatur
  • Satellitenkarten
  • Wetterkarte
  • Widgets
  • user-avatar
    Anmelden

    Stündliche Wetter Djelfa

    Heute, 22 September, Freitag

    Zeit Temperatur Niederschläge Wind Luftdruck Luftfeuchtigkeit
    00:00 +20°C° 0 mm 5 m/S 667 mmHg 37%
    01:00 +20°C° 0 mm 4 m/S 667 mmHg 39%
    02:00 +19°C° 0 mm 3 m/S 667 mmHg 40%
    03:00 +19°C° 0 mm 3 m/S 667 mmHg 42%
    04:00 +19°C° 0 mm 3 m/S 667 mmHg 42%
    05:00 +18°C° 0 mm 2 m/S 667 mmHg 43%
    06:00 +18°C° 0 mm 2 m/S 667 mmHg 44%
    07:00 +20°C° 0 mm 2 m/S 667 mmHg 39%
    08:00 +22°C° 0 mm 3 m/S 668 mmHg 34%
    09:00 +24°C° 0 mm 3 m/S 669 mmHg 29%
    10:00 +26°C° 0 mm 3 m/S 669 mmHg 27%
    11:00 +27°C° 0 mm 3 m/S 669 mmHg 24%
    12:00 +28°C° 0 mm 3 m/S 669 mmHg 21%
    13:00 +29°C° 0 mm 3 m/S 669 mmHg 21%
    14:00 +29°C° 0 mm 3 m/S 668 mmHg 20%
    15:00 +29°C° 0 mm 3 m/S 668 mmHg 19%
    16:00 +28°C° 0,2 mm 4 m/S 668 mmHg 21%
    17:00 +28°C° 0,2 mm 4 m/S 668 mmHg 22%
    18:00 +27°C° 0,2 mm 4 m/S 668 mmHg 23%
    19:00 +26°C° 0,1 mm 3 m/S 668 mmHg 25%
    20:00 +26°C° 0,1 mm 3 m/S 669 mmHg 26%
    21:00 +25°C° 0,1 mm 2 m/S 669 mmHg 28%
    22:00 +25°C° 0,1 mm 2 m/S 669 mmHg 30%
    23:00 +24°C° 0,1 mm 3 m/S 669 mmHg 32%

    Morgen, 23 September, Samstag

    Zeit Temperatur Niederschläge Wind Luftdruck Luftfeuchtigkeit
    00:00 +22°C° 0,1 mm 3 m/S 668 mmHg 34%
    01:00 +22°C° 0,1 mm 3 m/S 668 mmHg 35%
    02:00 +23°C° 0,1 mm 2 m/S 668 mmHg 36%
    03:00 +21°C° 0,1 mm 2 m/S 668 mmHg 37%
    04:00 +21°C° 0 mm 2 m/S 668 mmHg 37%
    05:00 +21°C° 0 mm 2 m/S 668 mmHg 38%
    06:00 +21°C° 0 mm 2 m/S 668 mmHg 38%
    07:00 +22°C° 0 mm 4 m/S 669 mmHg 35%
    08:00 +23°C° 0 mm 5 m/S 669 mmHg 32%
    09:00 +24°C° 0 mm 6 m/S 669 mmHg 29%
    10:00 +26°C° 0 mm 6 m/S 670 mmHg 27%
    11:00 +27°C° 0 mm 6 m/S 670 mmHg 24%
    12:00 +28°C° 0 mm 6 m/S 670 mmHg 22%
    13:00 +28°C° 0 mm 6 m/S 669 mmHg 21%
    14:00 +29°C° 0 mm 5 m/S 669 mmHg 20%
    15:00 +29°C° 0 mm 5 m/S 669 mmHg 20%
    16:00 +28°C° 0 mm 4 m/S 668 mmHg 21%
    17:00 +28°C° 0 mm 4 m/S 668 mmHg 22%
    18:00 +27°C° 0 mm 3 m/S 668 mmHg 23%
    19:00 +26°C° 0 mm 4 m/S 668 mmHg 25%
    20:00 +26°C° 0 mm 4 m/S 668 mmHg 26%
    21:00 +25°C° 0 mm 4 m/S 668 mmHg 28%
    22:00 +23°C° 0 mm 4 m/S 668 mmHg 30%
    23:00 +23°C° 0 mm 5 m/S 668 mmHg 32%

    übermorgen, 24 September, Sonntag

    Zeit Temperatur Niederschläge Wind Luftdruck Luftfeuchtigkeit
    00:00 +22°C° 0 mm 5 m/S 668 mmHg 34%
    01:00 +22°C° 0 mm 4 m/S 668 mmHg 35%
    02:00 +21°C° 0 mm 4 m/S 668 mmHg 37%
    03:00 +21°C° 0 mm 3 m/S 667 mmHg 39%
    04:00 +20°C° 0 mm 3 m/S 667 mmHg 40%
    05:00 +20°C° 0 mm 3 m/S 667 mmHg 41%
    06:00 +20°C° 0 mm 3 m/S 667 mmHg 42%
    07:00 +22°C° 0 mm 3 m/S 668 mmHg 38%
    08:00 +23°C° 0 mm 4 m/S 669 mmHg 34%
    09:00 +26°C° 0 mm 4 m/S 669 mmHg 30%
    10:00 +27°C° 0 mm 5 m/S 669 mmHg 27%
    11:00 +29°C° 0 mm 5 m/S 669 mmHg 24%
    12:00 +30°C° 0 mm 5 m/S 669 mmHg 20%
    13:00 +30°C° 0 mm 6 m/S 669 mmHg 20%
    14:00 +30°C° 0 mm 6 m/S 669 mmHg 19%
    15:00 +30°C° 0 mm 7 m/S 669 mmHg 18%
    16:00 +29°C° 0 mm 6 m/S 668 mmHg 20%
    17:00 +28°C° 0 mm 5 m/S 668 mmHg 22%
    18:00 +27°C° 0 mm 5 m/S 668 mmHg 24%
    19:00 +26°C° 0 mm 4 m/S 668 mmHg 26%
    20:00 +26°C° 0 mm 3 m/S 668 mmHg 28%
    21:00 +25°C° 0 mm 2 m/S 668 mmHg 30%
    22:00 +24°C° 0 mm 2 m/S 668 mmHg 33%
    23:00 +23°C° 0 mm 1 m/S 668 mmHg 35%

    25 September, Montag

    Zeit Temperatur Niederschläge Wind Luftdruck Luftfeuchtigkeit
    00:00 +23°C° 0 mm 1 m/S 668 mmHg 37%
    01:00 +22°C° 0 mm 1 m/S 667 mmHg 40%
    02:00 +21°C° 0 mm 1 m/S 667 mmHg 42%
    03:00 +21°C° 0 mm 1 m/S 667 mmHg 44%
    04:00 +21°C° 0 mm 1 m/S 667 mmHg 46%
    05:00 +20°C° 0 mm 1 m/S 667 mmHg 48%
    06:00 +20°C° 0 mm 1 m/S 667 mmHg 50%
    07:00 +20°C° 0 mm 2 m/S 667 mmHg 44%
    08:00 +22°C° 0 mm 3 m/S 668 mmHg 39%
    09:00 +25°C° 0 mm 4 m/S 669 mmHg 34%
    10:00 +26°C° 0 mm 4 m/S 669 mmHg 29%
    11:00 +27°C° 0 mm 4 m/S 669 mmHg 23%
    12:00 +28°C° 0 mm 5 m/S 669 mmHg 18%
    13:00 +29°C° 0 mm 5 m/S 668 mmHg 17%
    14:00 +29°C° 0 mm 5 m/S 668 mmHg 16%
    15:00 +29°C° 0 mm 5 m/S 668 mmHg 15%
    16:00 +28°C° 0 mm 5 m/S 668 mmHg 17%
    17:00 +27°C° 0 mm 4 m/S 668 mmHg 19%
    18:00 +26°C° 0 mm 3 m/S 668 mmHg 21%
    19:00 +25°C° 0 mm 3 m/S 668 mmHg 23%
    20:00 +25°C° 0 mm 2 m/S 668 mmHg 25%
    21:00 +24°C° 0 mm 2 m/S 668 mmHg 27%
    22:00 +23°C° 0 mm 2 m/S 668 mmHg 28%
    23:00 +22°C° 0 mm 1 m/S 667 mmHg 30%

    26 September, Dienstag

    Zeit Temperatur Niederschläge Wind Luftdruck Luftfeuchtigkeit
    00:00 +22°C° 0 mm 1 m/S 667 mmHg 32%
    01:00 +21°C° 0 mm 1 m/S 667 mmHg 33%
    02:00 +20°C° 0 mm 1 m/S 667 mmHg 35%
    03:00 +18°C° 0 mm 0 m/S 666 mmHg 37%
    04:00 +17°C° 0 mm 0 m/S 666 mmHg 37%
    05:00 +17°C° 0 mm 0 m/S 666 mmHg 38%
    06:00 +17°C° 0 mm 0 m/S 666 mmHg 38%
    07:00 +19°C° 0 mm 0 m/S 667 mmHg 34%
    08:00 +21°C° 0 mm 0 m/S 668 mmHg 30%
    09:00 +23°C° 0 mm 0 m/S 669 mmHg 26%
    10:00 +26°C° 0 mm 1 m/S 669 mmHg 23%
    11:00 +27°C° 0 mm 1 m/S 668 mmHg 21%
    12:00 +28°C° 0 mm 1 m/S 668 mmHg 19%
    13:00 +28°C° 0 mm 2 m/S 668 mmHg 17%
    14:00 +29°C° 0 mm 2 m/S 668 mmHg 16%
    15:00 +29°C° 0 mm 2 m/S 668 mmHg 15%
    16:00 +28°C° 0 mm 2 m/S 667 mmHg 17%
    17:00 +28°C° 0 mm 3 m/S 667 mmHg 18%
    18:00 +27°C° 0 mm 3 m/S 667 mmHg 20%
    19:00 +26°C° 0 mm 2 m/S 667 mmHg 22%
    20:00 +25°C° 0 mm 2 m/S 668 mmHg 25%
    21:00 +24°C° 0 mm 2 m/S 668 mmHg 28%
    22:00 +24°C° 0 mm 2 m/S 668 mmHg 32%
    23:00 +23°C° 0 mm 2 m/S 667 mmHg 35%

    27 September, Mittwoch

    Zeit Temperatur Niederschläge Wind Luftdruck Luftfeuchtigkeit
    00:00 +23°C° 0 mm 2 m/S 667 mmHg 39%
    01:00 +21°C° 0 mm 2 m/S 667 mmHg 42%
    02:00 +21°C° 0 mm 2 m/S 667 mmHg 45%
    03:00 +20°C° 0 mm 2 m/S 666 mmHg 48%
    04:00 +20°C° 0 mm 2 m/S 667 mmHg 48%
    05:00 +21°C° 0 mm 1 m/S 667 mmHg 49%
    06:00 +20°C° 0 mm 1 m/S 667 mmHg 50%
    07:00 +22°C° 0 mm 1 m/S 667 mmHg 45%
    08:00 +24°C° 0 mm 2 m/S 668 mmHg 39%
    09:00 +26°C° 0 mm 2 m/S 669 mmHg 33%
    10:00 +26°C° 0 mm 2 m/S 669 mmHg 31%
    11:00 +27°C° 0 mm 3 m/S 669 mmHg 29%
    12:00 +28°C° 0 mm 3 m/S 669 mmHg 26%
    13:00 +29°C° 0 mm 3 m/S 668 mmHg 25%
    14:00 +29°C° 0 mm 3 m/S 668 mmHg 24%
    15:00 +29°C° 0 mm 3 m/S 668 mmHg 23%
    16:00 +29°C° 0,3 mm 3 m/S 668 mmHg 24%
    17:00 +28°C° 0,3 mm 3 m/S 668 mmHg 25%
    18:00 +27°C° 0,3 mm 3 m/S 668 mmHg 26%
    19:00 +27°C° 0,4 mm 3 m/S 668 mmHg 28%
    20:00 +26°C° 0,4 mm 3 m/S 668 mmHg 31%
    21:00 +25°C° 0,4 mm 4 m/S 668 mmHg 34%
    22:00 +24°C° 0 mm 3 m/S 668 mmHg 37%
    23:00 +24°C° 0 mm 3 m/S 668 mmHg 40%
    Mehr zeigen